Location: St. Louis
(38.6270°N, 90.1994°W)
Time: 12:52:30
(UTC-06:00)

deb Explorer IX - Pass Details

Date: 01 December 2021
Orbit: 544 x 1082 km, 38.8° (Epoch: 16 January)

Event Time Altitude Azimuth Distance (km) Brightness Sun altitude
Rises 17:21:39 0° 268° (W) 2,742 ? -8.3°
Reaches altitude 10° 17:25:12 10° 237° (WSW) 1,910 ? -8.9°
Maximum altitude 17:26:52 12° 214° (SW) 1,821 ? -9.2°
Drops below altitude 10° 17:28:35 10° 191° (SSW) 1,994 ? -9.5°
Sets 17:32:31 0° 161° (SSE) 3,026 ? -10.2°
